CFG3705 MDLR-EDDF

Flight info

Callsign CFG3705
Flight time N/A
Altitude 35000
Route CHUMA2K CHUMA DCT CHEDR/M081F350 DCT AMENO DCT 35N055W 39N050W 42N045W 44N040W 47N030W 4830N02000W DCT BEDRA DCT NASBA DCT GAPLI/N0470F350 DCT SIDDI DCT DAWLY DCT GIBSO L620 SAM M140 DVR UL9 KONAN UL607 SPI T180 NIVNU T847 IMCOM IMCOM1D
Aircraft A339/H-SDE3GHIJ2J3J5M1RVWXY/LB2D1

Departure

Time 2026-04-11 15:44
Airport Casa De Campo International Airport (MDLR)

Arrival

Time N/A
Airport Frankfurt Main Airport (EDDF)
Time Latitude Longitude Altitude Speed Heading
2026-04-11 15:28 18.44946 -68.91329 226 ft 0 kts 187°
2026-04-11 15:34 18.44952 -68.91329 226 ft 2 kts 186°
2026-04-11 15:34 18.44972 -68.91326 228 ft 3 kts 182°
2026-04-11 15:34 18.44992 -68.91325 227 ft 3 kts 173°
2026-04-11 15:34 18.45011 -68.91327 229 ft 3 kts 155°
2026-04-11 15:35 18.45026 -68.91333 229 ft 3 kts 123°
2026-04-11 15:35 18.45032 -68.91340 228 ft 1 kts 97°
2026-04-11 15:35 18.45032 -68.91341 226 ft 0 kts 97°
2026-04-11 15:38 18.45031 -68.91331 226 ft 7 kts 97°
2026-04-11 15:38 18.45021 -68.91241 226 ft 15 kts 97°
2026-04-11 15:38 18.45064 -68.91160 226 ft 13 kts 23°
2026-04-11 15:39 18.45151 -68.91148 228 ft 11 kts
2026-04-11 15:39 18.45227 -68.91149 228 ft 11 kts 343°
2026-04-11 15:39 18.45262 -68.91189 230 ft 5 kts 295°
2026-04-11 15:39 18.45265 -68.91233 228 ft 9 kts 273°
2026-04-11 15:40 18.45272 -68.91337 228 ft 19 kts 274°
2026-04-11 15:40 18.45290 -68.91502 226 ft 25 kts 278°
2026-04-11 15:40 18.45313 -68.91677 229 ft 23 kts 277°
2026-04-11 15:40 18.45334 -68.91845 229 ft 23 kts 277°
2026-04-11 15:41 18.45354 -68.92009 227 ft 22 kts 277°
2026-04-11 15:41 18.45372 -68.92159 228 ft 20 kts 277°
2026-04-11 15:41 18.45388 -68.92308 226 ft 21 kts 276°
2026-04-11 15:41 18.45371 -68.92451 228 ft 19 kts 256°
2026-04-11 15:42 18.45383 -68.92495 229 ft 0 kts 299°
2026-04-11 15:42 18.45395 -68.92507 227 ft 6 kts 314°
2026-04-11 15:42 18.45409 -68.92487 225 ft 0 kts 95°
2026-04-11 15:43 18.45408 -68.92483 225 ft 1 kts 98°
2026-04-11 15:43 18.45388 -68.92326 226 ft 56 kts 96°
2026-04-11 15:43 18.45311 -68.91670 229 ft 123 kts 96°
2026-04-11 15:43 18.45180 -68.90574 263 ft 172 kts 99°
2026-04-11 15:44 18.45049 -68.89391 1055 ft 156 kts 99°
2026-04-11 15:44 18.44911 -68.88277 1753 ft 152 kts 98°
2026-04-11 15:44 18.44756 -68.87144 2260 ft 165 kts 98°
2026-04-11 15:44 18.44651 -68.85901 2747 ft 175 kts 88°
2026-04-11 15:45 18.45019 -68.84670 3206 ft 184 kts 57°
2026-04-11 15:45 18.46024 -68.83652 3195 ft 225 kts 31°
2026-04-11 15:45 18.47590 -68.82961 3130 ft 262 kts 17°
2026-04-11 15:45 18.49378 -68.82456 3667 ft 267 kts 21°
2026-04-11 15:46 18.51021 -68.81564 4340 ft 267 kts 32°
2026-04-11 15:46 18.52582 -68.80484 4938 ft 270 kts 34°
2026-04-11 15:46 18.54153 -68.79400 5526 ft 272 kts 32°
2026-04-11 15:46 18.55569 -68.78480 6026 ft 275 kts 31°
2026-04-11 15:47 18.56233 -68.78066 6255 ft 276 kts 30°
2026-04-11 15:47 18.57308 -68.77412 6602 ft 278 kts 30°
2026-04-11 15:47 18.57754 -68.77146 6753 ft 278 kts 29°
2026-04-11 15:47 18.59475 -68.76131 7167 ft 281 kts 29°
2026-04-11 15:48 18.61199 -68.75125 7571 ft 283 kts 28°
2026-04-11 15:48 18.62930 -68.74116 7975 ft 286 kts 28°
2026-04-11 15:48 18.64552 -68.73170 8482 ft 287 kts 28°
2026-04-11 15:48 18.66318 -68.72140 9031 ft 289 kts 28°
2026-04-11 15:49 18.68086 -68.71104 9493 ft 292 kts 28°
2026-04-11 15:49 18.69832 -68.70077 9967 ft 295 kts 28°
2026-04-11 15:49 18.71680 -68.68991 10293 ft 303 kts 28°
2026-04-11 15:49 18.73567 -68.67884 10422 ft 317 kts 28°
2026-04-11 15:50 18.75535 -68.66730 10551 ft 331 kts 28°
2026-04-11 15:50 18.77594 -68.65522 10702 ft 343 kts 28°
2026-04-11 15:50 18.79697 -68.64288 11088 ft 347 kts 28°
2026-04-11 15:50 18.81810 -68.63047 11521 ft 349 kts 28°
2026-04-11 15:51 18.83942 -68.61795 11955 ft 351 kts 28°
2026-04-11 15:51 18.86088 -68.60533 12379 ft 354 kts 28°
2026-04-11 15:51 18.88217 -68.59280 12808 ft 356 kts 28°
2026-04-11 15:51 18.90390 -68.58001 13224 ft 359 kts 28°
2026-04-11 15:52 18.92583 -68.56711 13645 ft 361 kts 28°
2026-04-11 15:52 18.94792 -68.55412 14036 ft 364 kts 28°
2026-04-11 15:52 18.97012 -68.54105 14408 ft 366 kts 28°
2026-04-11 15:52 18.99245 -68.52792 14790 ft 368 kts 28°
2026-04-11 15:53 19.01457 -68.51489 15168 ft 370 kts 28°
2026-04-11 15:53 19.03742 -68.50143 15554 ft 372 kts 28°
2026-04-11 15:53 19.05977 -68.48827 15908 ft 374 kts 28°
2026-04-11 15:53 19.08250 -68.47487 16270 ft 376 kts 28°
2026-04-11 15:54 19.10547 -68.46133 16634 ft 378 kts 28°
2026-04-11 15:54 19.12845 -68.44778 16997 ft 380 kts 28°
2026-04-11 15:54 19.15163 -68.43410 17363 ft 382 kts 28°
2026-04-11 15:54 19.17485 -68.42040 17718 ft 384 kts 27°
2026-04-11 15:55 19.19818 -68.40662 18082 ft 385 kts 27°
2026-04-11 15:55 19.22153 -68.39239 18395 ft 388 kts 31°
2026-04-11 15:55 19.24331 -68.37539 18707 ft 391 kts 37°
2026-04-11 15:55 19.26470 -68.35744 19016 ft 393 kts 37°
2026-04-11 15:56 19.28631 -68.33950 19324 ft 395 kts 37°
2026-04-11 15:56 19.30802 -68.32158 19631 ft 397 kts 36°
2026-04-11 15:56 19.32996 -68.30350 19932 ft 400 kts 36°
2026-04-11 15:56 19.35196 -68.28536 20245 ft 402 kts 36°
2026-04-11 15:57 19.37407 -68.26713 20562 ft 404 kts 36°
2026-04-11 15:57 19.39610 -68.24895 20877 ft 406 kts 37°
2026-04-11 15:57 19.41871 -68.23027 21186 ft 409 kts 37°
2026-04-11 15:57 19.44121 -68.21168 21505 ft 411 kts 37°
2026-04-11 15:58 19.46386 -68.19295 21815 ft 414 kts 37°
2026-04-11 15:58 19.48657 -68.17417 22136 ft 416 kts 37°
2026-04-11 15:58 19.50948 -68.15521 22458 ft 419 kts 37°
2026-04-11 15:58 19.53224 -68.13638 22754 ft 421 kts 37°
2026-04-11 15:59 19.55522 -68.11735 23090 ft 424 kts 37°
2026-04-11 15:59 19.57867 -68.09793 23411 ft 426 kts 37°
2026-04-11 15:59 19.60208 -68.07854 23706 ft 429 kts 37°
2026-04-11 15:59 19.62573 -68.05893 23983 ft 431 kts 37°
2026-04-11 16:00 19.64942 -68.03930 24255 ft 434 kts 36°
2026-04-11 16:00 19.67326 -68.01952 24511 ft 436 kts 36°
2026-04-11 16:00 19.69721 -67.99965 24789 ft 438 kts 36°
2026-04-11 16:00 19.72127 -67.97967 25071 ft 441 kts 36°
2026-04-11 16:01 19.74553 -67.95952 25348 ft 443 kts 36°
2026-04-11 16:01 19.76994 -67.93924 25611 ft 445 kts 36°
2026-04-11 16:01 19.79406 -67.91920 25868 ft 448 kts 36°
2026-04-11 16:01 19.81874 -67.89867 26136 ft 450 kts 36°
2026-04-11 16:02 19.84339 -67.87816 26401 ft 452 kts 36°
2026-04-11 16:02 19.86133 -67.86323 26594 ft 454 kts 36°
2026-04-11 16:02 19.88634 -67.84242 26853 ft 456 kts 35°
2026-04-11 16:02 19.91141 -67.82154 27114 ft 458 kts 35°
2026-04-11 16:03 19.93638 -67.80074 27370 ft 461 kts 35°
2026-04-11 16:03 19.96185 -67.77950 27638 ft 463 kts 35°
2026-04-11 16:03 19.98720 -67.75836 27882 ft 465 kts 35°
2026-04-11 16:03 20.01278 -67.73703 28147 ft 467 kts 35°
2026-04-11 16:04 20.03835 -67.71569 28401 ft 469 kts 35°
2026-04-11 16:04 20.06408 -67.69420 28652 ft 471 kts 35°
2026-04-11 16:04 20.08998 -67.67257 28898 ft 474 kts 35°
2026-04-11 16:04 20.11567 -67.65110 29150 ft 476 kts 35°
2026-04-11 16:05 20.14171 -67.62933 29417 ft 478 kts 35°
2026-04-11 16:05 20.16791 -67.60743 29638 ft 480 kts 35°
2026-04-11 16:05 20.19424 -67.58539 29903 ft 482 kts 35°
2026-04-11 16:06 20.24726 -67.54100 30363 ft 487 kts 35°
2026-04-11 16:06 20.27390 -67.51867 30596 ft 489 kts 34°
2026-04-11 16:06 20.30071 -67.49620 30826 ft 491 kts 34°
2026-04-11 16:06 20.32757 -67.47367 31059 ft 492 kts 34°
2026-04-11 16:07 20.35449 -67.45109 31281 ft 494 kts 34°
2026-04-11 16:07 20.38159 -67.42834 31513 ft 496 kts 34°
2026-04-11 16:07 20.40874 -67.40554 31743 ft 498 kts 34°
2026-04-11 16:07 20.43598 -67.38265 31949 ft 500 kts 34°
2026-04-11 16:08 20.46336 -67.35964 32183 ft 502 kts 34°
2026-04-11 16:08 20.49078 -67.33657 32393 ft 503 kts 34°
2026-04-11 16:08 20.51834 -67.31339 32582 ft 505 kts 34°
2026-04-11 16:08 20.54601 -67.29010 32756 ft 507 kts 34°
2026-04-11 16:09 20.57363 -67.26684 32935 ft 508 kts 34°
2026-04-11 16:09 20.60152 -67.24334 33071 ft 509 kts 34°
2026-04-11 16:09 20.62939 -67.21985 33215 ft 510 kts 34°
2026-04-11 16:09 20.65723 -67.19637 33339 ft 511 kts 34°
2026-04-11 16:10 20.68518 -67.17278 33457 ft 513 kts 34°
2026-04-11 16:10 20.71319 -67.14914 33590 ft 513 kts 34°
2026-04-11 16:10 20.74119 -67.12548 33741 ft 513 kts 33°
2026-04-11 16:10 20.76915 -67.10185 33896 ft 513 kts 33°
2026-04-11 16:11 20.79678 -67.07849 34040 ft 512 kts 33°